User: anonymous   Login
Location: Iesi
(43.5167°N, 13.2333°E)
Time: 15:55:32
(UTC+00:00)
Language:

Cosmos 2322 Rocket - Orbit

View from above orbital plane
View from above orbital plane
View from above satellite
View from above satellite

Ground track
Ground track

The orbit data is extracted from the following two-line orbital elements,

1 23705U 95058B   20296.18541549  .00000069  00000-0  59915-4 0  9998
2 23705  71.0228 343.0535 0014434 238.8524 121.1184 14.15137545290207
Epoch (UTC): 22 October 2020 04:26:59
Eccentricity: 0.0014434
inclination: 71.0228°
perigee height: 831 km
apogee height: 852 km
right ascension of ascending node: 343.0535°
argument of perigee: 238.8524°
revolutions per day: 14.15137545
mean anomaly at epoch: 121.1184°
orbit number at epoch: 29020

The dashed part of the orbit path shows where the satellite is in the earth's shadow,  

DLR